CEST,Max TemperatureF,Mean TemperatureF,Min TemperatureF,Max Dew PointF,MeanDew PointF,Min DewpointF,Max Humidity, Mean Humidity, Min Humidity, Max Sea Level PressureIn, Mean Sea Level PressureIn, Min Sea Level PressureIn, Max VisibilityMiles, Mean VisibilityMiles, Min VisibilityMiles, Max Wind SpeedMPH, Mean Wind SpeedMPH, Max Gust SpeedMPH,PrecipitationIn, CloudCover, Events, WindDirDegrees
2013-5-1,64,53,42,39,38,36,76,56,32,30.23,30.14,30.06,12,7,6,18,13,,0.20,8,Rain,51
2013-5-2,58,52,46,48,46,41,100,82,64,30.14,30.10,30.06,6,4,2,16,9,,0.20,6,Rain,25
2013-5-3,64,54,44,48,43,36,100,68,36,30.10,30.07,30.06,9,5,2,13,8,,0.00,3,,334
2013-5-4,57,49,41,45,41,36,95,70,45,30.15,30.10,30.04,9,6,1,20,9,,0.00,6,,260
2013-5-5,66,54,41,46,42,37,100,67,29,30.22,30.19,30.15,19,6,0,9,5,,0.00,2,Fog,235
2013-5-6,69,56,42,47,43,39,93,60,29,30.21,30.12,30.06,19,7,4,10,5,,0.01,,,338
2013-5-7,71,62,52,52,47,43,77,60,40,30.09,29.99,29.92,9,6,5,13,6,,0.00,3,,328
2013-5-8,65,57,49,61,52,46,100,84,68,29.90,29.82,29.77,9,4,1,15,6,,0.28,6,Rain-Thunderstorm,209
2013-5-9,61,53,45,54,40,34,94,61,29,29.98,29.91,29.86,12,6,5,20,11,,0.03,4,Rain,244
2013-5-10,59,54,49,48,42,39,94,66,43,30.04,29.95,29.86,16,6,2,25,14,,0.02,6,Rain,246
2013-5-11,56,51,46,46,42,37,93,71,51,30.04,29.95,29.92,12,6,3,26,13,40,0.04,6,Rain,241
2013-5-12,58,50,41,46,39,34,93,68,37,30.06,30.00,29.89,12,6,6,21,15,,0.01,6,Rain,263
2013-5-13,58,53,48,50,44,37,100,74,42,30.01,29.95,29.92,19,6,2,29,17,,0.12,7,Rain,257
2013-5-14,53,50,46,48,44,39,94,80,62,29.89,29.76,29.50,16,6,3,17,13,32,0.16,6,Rain,217
2013-5-15,60,53,46,47,41,36,82,62,36,29.59,29.50,29.42,9,6,6,23,15,,0.00,6,Rain,228
2013-5-16,53,49,45,48,43,36,94,78,54,29.60,29.54,29.50,16,6,4,9,5,,0.08,7,Rain,34
2013-5-17,51,48,46,45,43,41,87,80,71,29.77,29.64,29.53,12,7,6,12,7,,0.00,7,Rain,355
2013-5-18,59,52,46,45,43,39,93,72,48,29.80,29.77,29.74,19,6,4,10,6,,0.00,7,,245
2013-5-19,63,54,46,50,46,43,93,73,57,29.83,29.79,29.77,9,5,4,16,8,,0.00,6,,32
2013-5-20,52,50,47,50,48,43,100,93,79,29.84,29.80,29.77,9,3,1,9,6,,0.20,7,Rain,294
2013-5-21,50,49,48,50,48,45,100,95,87,29.98,29.89,29.80,6,4,1,17,9,,0.08,8,Rain,347
2013-5-22,55,50,46,46,41,37,100,73,45,30.07,30.01,29.98,7,6,2,16,12,,0.00,7,Rain,329
2013-5-23,50,46,41,46,38,30,93,71,38,29.95,29.85,29.83,16,6,6,22,11,,0.08,4,Rain,321
2013-5-24,47,42,38,43,38,36,93,84,68,29.89,29.83,29.80,16,6,2,14,7,,0.24,5,Rain,196
2013-5-25,56,48,40,43,40,37,93,72,43,30.10,30.03,29.92,19,6,4,18,10,,0.02,6,Rain,12
2013-5-26,61,53,45,43,41,37,93,64,31,30.09,30.02,29.98,12,6,6,17,12,,0.00,7,Rain,325
2013-5-27,66,54,42,41,37,32,87,53,26,29.98,29.86,29.74,10,7,6,12,8,,0.00,,,249
2013-5-28,66,56,46,52,45,39,94,70,47,29.74,29.59,29.53,16,6,3,15,7,,0.02,6,Rain,158
2013-5-29,56,50,45,50,45,41,100,83,51,29.68,29.63,29.59,6,5,1,15,8,,0.20,7,Rain,270
2013-5-30,58,53,48,52,50,48,100,91,72,29.89,29.74,29.65,6,4,0,14,8,,0.01,7,Fog-Rain,345
2013-5-31,62,56,49,53,50,46,100,86,57,30.04,29.96,29.89,7,3,0,20,12,,0.00,7,Fog,344